Regional Weather Roundup
Issued by NWS

Home | Current Version | Previous Version | Graphics & Text | Print | Product List | Glossary On
Versions: 1 2 3 4 5 6 7 8 9 10 11 12 13 14 15 16 17 18 19 20 21 22 23 24 25 26 27 28 29 30 31 32 33 34 35 36 37 38 39 40 41 42 43 44 45 46 47 48 49 50
000
ASUS45 KBOU 311907
RWRCO

WEATHER ROUNDUP FOR COLORADO
NATIONAL WEATHER SERVICE DENVER/BOULDER CO
100 PM MDT SUN AUG 31 2014

NOTE: "FAIR" INDICATES FEW OR NO CLOUDS BELOW 12000 FEET WITH NO
SIGNIFICANT WEATHER AND/OR OBSTRUCTIONS TO VISIBILITY.

COZ001>005-013-030-031-312000-
...NORTHWEST COLORADO...

CITY           SKY/WX    TMP DP  RH WIND       PRES   REMARKS
CRAIG          PTSUNNY   64  44  48 VRB5      30.06F
HAYDEN         MOSUNNY   59  43  55 W5        30.07F
MEEKER         MOSUNNY   68  45  43 CALM      30.05F
MOUNT WERNER   NOT AVBL
STEAMBOAT SPGS PTSUNNY   56  44  62 NW8       30.09S
WALDEN         CLOUDY    50  41  71 N7        30.13S
$$

COZ006>008-011-312000-
...WEST CENTRAL VALLEYS...

CITY           SKY/WX    TMP DP  RH WIND       PRES   REMARKS
GRAND JUNCTION MOSUNNY   85  37  18 W21       29.90F
MONTROSE       MOSUNNY   82  36  19 SW16G25   30.00F
EAGLE          MOSUNNY   75  39  27 W20G31    30.02F
RIFLE          MOSUNNY   81  36  19 SW22G29   29.94F
DELTA          NOT AVBL
NUCLA          MOSUNNY   82  34  17 SW14G23   30.05F
$$

COZ017>023-064>068-312000-
...SOUTHWEST COLORADO...

CITY           SKY/WX    TMP DP  RH WIND       PRES   REMARKS
DURANGO        MOSUNNY   79  33  19 W26       30.13F
CORTEZ         MOSUNNY   85  35  16 W16G22    30.07F
PAGOSA SPRINGS MOSUNNY   76  28  17 SW20G31   30.19F
TELLURIDE      MOSUNNY   68  30  24 SW20G32   30.25F
WOLF CREEK PAS CLOUDY    50  32  50 SW20G41   30.45F
$$

COZ009-010-012-014-032>034-037-058>063-312000-
...CENTRAL COLORADO...

CITY           SKY/WX    TMP DP  RH WIND       PRES   REMARKS
ASPEN          LGT RAIN  69  33  26 VRB7      30.10F
BUENA VISTA    PTSUNNY   72  29  19 SW17G29   30.12R
COPPER MTN     PTSUNNY   46  34  61 S16G31    30.37F
BERTHOUD PASS  PTSUNNY   37  36  93 MISG      30.38F
COTTONWOOD PAS LGT RAIN  63  30  29 W22G40    30.26R
GUNNISON       MOSUNNY   73  36  25 W15G28    30.14F
KREMMLING      PTSUNNY   70  37  30 N3        30.06F
LEADVILLE      PTSUNNY   57  34  41 SW14      30.24F
MONARCH PASS   CLOUDY    50  28  43 W35G54    30.48S
SALIDA         MOSUNNY   80  30  16 W16G26    30.15S
SUNLIGHT       PTSUNNY   63  41  45 SW3       30.31F
WILKERSON PASS NOT AVBL
$$

COZ069>075-312000-
...SAN LUIS VALLEY/SANGRE DE CRISTO MOUNTAINS...

CITY           SKY/WX    TMP DP  RH WIND       PRES   REMARKS
ALAMOSA        SUNNY     80  30  16 W25G32    30.12F
LA VETA PASS   NOT AVBL
SAGUACHE       NOT AVBL
$$

COZ035-036-038>040-312000-
...NORTHERN COLORADO FRONT RANGE...

CITY           SKY/WX    TMP DP  RH WIND       PRES   REMARKS
DENVER INTL AP PTSUNNY   74  48  39 SE13      29.92F
DMNS CITY PARK   N/A     73  47  38 SE8       29.91F
AURORA         PTSUNNY   74  48  40 NE6       29.96F
FRONT RANGE AP MOSUNNY   73  48  40 E9        29.95F
ERIE MUNI ARPT MOSUNNY   76  47  35 SE16      29.91F
BOULDER MUN AP MOSUNNY   77  46  33 SE10G20   29.89F
CENTENNIAL     MOSUNNY   72  46  39 SW5       29.97F
BROOMFIELD     PTSUNNY   73  48  40 SE10      29.94F
FORT COLLINS   PTSUNNY   70  54  56 NE14      29.94R
LONGMONT       MOSUNNY   79  51  36 S10G16    29.91F
$$

COZ041-046-047-076>085-087-088-312000-
...PIKES PEAK/PALMER DIVIDE AND SOUTHERN FOOTHILLS...

CITY           SKY/WX    TMP DP  RH WIND       PRES   REMARKS
COLO. SPRINGS  PTSUNNY   77  49  37 NE17      29.96F
A. F. ACADEMY  MOSUNNY   73  48  41 N7        29.99F
ELLICOTT       SUNNY     79  48  33 NE14      29.96S
FALCON         SUNNY     71  49  45 N15       30.03F
FORT CARSON    SUNNY     84  43  23 NW15G32   29.93R
LIMON          SUNNY     74  49  41 N17G23    29.95F
MONUMENT HILL  SUNNY     64  46  52 NE8       30.05F
TRINIDAD       SUNNY     91  31  11 SW13G25   29.93F
$$

COZ042>045-048>051-090-091-312000-
...NORTHEAST COLORADO...

CITY           SKY/WX    TMP DP  RH WIND       PRES   REMARKS
GREELEY ARPT   PTSUNNY   72  52  49 N5        29.92S
AKRON          MOSUNNY   72  49  44 N7        29.92F
BURLINGTON     PTSUNNY   77  54  44 N20G26    29.89R
WRAY             N/A     74  54  48 N10       29.87F
STERLING       PTSUNNY   77  52  41 NW6       29.85F
HOLYOKE        CLOUDY    73  55  53 N5        29.85F
FORT MORGAN    PTSUNNY   71  47  41 W7        29.90F
$$

COZ086-089-092>099-312000-
...SOUTHEAST COLORADO...

CITY           SKY/WX    TMP DP  RH WIND       PRES   REMARKS
PUEBLO         SUNNY     92  33  12 W9        29.83F
LA JUNTA       MOSUNNY   97  40  14 NW13G28   29.80F
LAMAR          MOSUNNY   95  40  14 NW17      29.76F
SPRINGFIELD      N/A     94  40  15 SW8       29.83F
$$



USA.gov is the U.S. government's official web portal to all federal, state and local government web resources and services.